Regional Weather Roundup
Issued by NWS

Home | Current Version | Previous Version | Graphics & Text | Print | Product List | Glossary On
Versions: 1 2 3 4 5 6 7 8 9 10 11 12 13 14 15 16 17 18 19 20 21 22 23 24 25 26 27 28 29 30 31 32 33 34 35 36 37 38 39 40 41 42 43 44 45 46 47 48 49 50
000
ASUS43 KDTX 210601
RWRMI
MICHIGAN HOURLY REGIONAL WEATHER ROUNDUP
NATIONAL WEATHER SERVICE DETROIT/PONTIAC MI
100 AM EST TUE NOV 21 2017

NOTE: "FAIR" INDICATES FEW OR NO CLOUDS BELOW 12,000 FEET WITH NO
SIGNIFICANT WEATHER AND/OR OBSTRUCTION TO VISIBILITY.

MIZ047>049-052>055-059>063-066>070-074>076-081>083-210700-
SOUTHEAST LOWER MICHIGAN

CITY           SKY/WX    TMP DP  RH WIND       PRES   REMARKS
ADRIAN         CLEAR     36  26  67 SW16G25   29.82F WCI  26
6HR MIN TEMP:  36; 6HR MAX TEMP:  41;

ALMA           CLEAR     41  29  62 SW13G18   29.65F
ANN ARBOR      CLEAR     38  26  62 S14G21    29.79F WCI  30
BAD AXE        CLOUDY    42  26  53 SW17G28   29.65F
6HR MIN TEMP:  39; 6HR MAX TEMP:  42;

CARO           PTCLDY    42  26  55 S15G24    29.66F
DETROIT CITY   CLEAR    N/A N/A N/A SW16G24   29.80F
DETROIT        PTCLDY    40  25  55 SW18G28   29.81F WCI  31
6HR MIN TEMP:  39; 6HR MAX TEMP:  42;

FLINT          CLEAR     41  25  53 SW18G25   29.71F
6HR MIN TEMP:  41; 6HR MAX TEMP:  44;

GROSSE ILE     CLEAR     40  27  58 SW13G20   29.82F WCI  33
6HR MIN TEMP:  40; 6HR MAX TEMP:  43;

HILLSDALE      CLEAR     37  23  56 SW15G23   29.77F WCI  28
HOWELL         CLEAR     39  26  59 S10G18    29.74F WCI  32
6HR MIN TEMP:  39; 6HR MAX TEMP:  44;


CITY           SKY/WX    TMP DP  RH WIND       PRES   REMARKS
JACKSON        CLEAR     41  23  48 S20G28    29.76F
6HR MIN TEMP:  41; 6HR MAX TEMP:  44;

LAMBERTVILLE   CLEAR     41  25  53 S9        29.84F
6HR MIN TEMP:  41; 6HR MAX TEMP:  44;

LANSING        CLEAR     41  26  55 SW17G25   29.71F
6HR MIN TEMP:  41; 6HR MAX TEMP:  46;

LAPEER         FAIR      41  25  54 SW18G24   29.72F
6HR MIN TEMP:  41; 6HR MAX TEMP:  44;

MASON          CLEAR     42  25  51 SW8G16    29.73F
MONROE         CLEAR     41  24  52 SW10G18   29.82F
6HR MIN TEMP:  40; 6HR MAX TEMP:  44;

MT. CLEMENS    CLEAR     41  26  54 SW17G26   29.76F
6HR MIN TEMP:  41; 6HR MAX TEMP:  43;

PONTIAC        CLOUDY    39  25  57 S15G26    29.75F WCI  31
6HR MIN TEMP:  39; 6HR MAX TEMP:  42;

PORT HOPE        N/A     44  26  49 SW14G25   29.61F
6HR MIN TEMP:  40; 6HR MAX TEMP:  44;

PORT HURON     CLEAR     41  25  52 S10G22    29.77F
TRI CITIES     CLEAR     42  29  59 SW15      29.65F
6HR MIN TEMP:  42; 6HR MAX TEMP:  46;

MIDLAND        FAIR      42  29  59 S15G22    29.62F
6HR MIN TEMP:  42; 6HR MAX TEMP:  45;

TROY           CLOUDY    42  25  50 SW18G24   29.80F
SAGINAW HB     PTCLDY    41  28  60 SW17      29.66F
$$
MIZ043>046-050>051-056>058-064>065-071>073-077>080-210700-
SOUTHWEST LOWER MICHIGAN

CITY           SKY/WX    TMP DP  RH WIND       PRES   REMARKS
BATTLE CREEK   PTCLDY    41  26  55 SW21G35   29.73F
6HR MIN TEMP:  40; 6HR MAX TEMP:  45;

BENTON HARBOR  CLOUDY    43  27  53 S15G23    29.71F
6HR MIN TEMP:  43; 6HR MAX TEMP:  48;

BIG RAPIDS     CLEAR     43  32  65 SW16G22   29.57F
6HR MIN TEMP:  42; 6HR MAX TEMP:  45;

COLDWATER      CLEAR     40  23  50 SW15G24   29.77F WCI  32
6HR MIN TEMP:  40; 6HR MAX TEMP:  43;

FREMONT        FAIR      45  36  70 SW20G28   29.60F
HOLLAND        CLOUDY    45  31  58 SW24G37   29.68F
6HR MIN TEMP:  45; 6HR MAX TEMP:  48;

GRAND RAPIDS   CLOUDY    43  29  57 SW20G26   29.67F
6HR MIN TEMP:  43; 6HR MAX TEMP:  48;

IONIA          FAIR      42  27  55 S16G25    29.66F
6HR MIN TEMP:  42; 6HR MAX TEMP:  45;

KALAMAZOO      PTCLDY    41  24  51 S18G25    29.73F
6HR MIN TEMP:  41; 6HR MAX TEMP:  45;

LUDINGTON      PTCLDY    46  37  69 SW22G37   29.53F
6HR MIN TEMP:  46; 6HR MAX TEMP:  48;

MARSHALL       CLEAR     40  24  52 S13G22    29.74F WCI  33
6HR MIN TEMP:  40; 6HR MAX TEMP:  44;

MOUNT PLEASANT CLEAR     43  28  55 SW12G20   29.61F
6HR MIN TEMP:  41; 6HR MAX TEMP:  45;

MUSKEGON       PTCLDY    48  35  60 SW28G46   29.62F
6HR MIN TEMP:  48; 6HR MAX TEMP:  50;

SOUTH HAVEN    MOCLDY    44  28  52 SW13G22   29.70F
$$
MIZ016>042-210700-
NORTHERN LOWER MICHIGAN

CITY           SKY/WX    TMP DP  RH WIND       PRES   REMARKS
ALPENA         PTCLDY    42  33  70 S15       29.49F
6HR MIN TEMP:  38; 6HR MAX TEMP:  43;

BEAVER ISLAND  PTCLDY    49  39  68 SW20G31   29.37S
6HR MIN TEMP:  43; 6HR MAX TEMP:  49;

BELLAIRE       CLEAR     47  37  66 SW12G23   29.44F
6HR MIN TEMP:  42; 6HR MAX TEMP:  48;

CADILLAC       CLOUDY    42  33  70 SW22G28   29.51F
CHARLEVOIX     PTCLDY    48  35  59 S18G32    29.42F
6HR MIN TEMP:  43; 6HR MAX TEMP:  49;

FRANKFORT      PTCLDY    49  38  65 S20G36    29.46F
GAYLORD        CLEAR     43  32  65 SW24G33   29.44F
6HR MIN TEMP:  38; 6HR MAX TEMP:  43;

GRAYLING       MOCLDY    43  32  64 SW12      29.49F
6HR MIN TEMP:  38; 6HR MAX TEMP:  44;

HARBOR SPRINGS CLEAR     48  35  60 SW17G28   29.39F
MANISTEE       PTCLDY    48  35  60 S12G25    29.50F
OSCODA         PTCLDY    41  28  60 SW16G24   29.56F
6HR MIN TEMP:  39; 6HR MAX TEMP:  42;

PELLSTON       CLEAR     47  34  60 SW17G29   29.39F
6HR MIN TEMP:  28; 6HR MAX TEMP:  48;

ROGERS CITY    PTCLDY    44  34  67 S15G23    29.44F
TRAVERSE CITY  CLEAR     49  33  54 SW12G25   29.45F
6HR MIN TEMP:  44; 6HR MAX TEMP:  49;

$$
MIZ007>008-015-210700-
EASTERN UPPER MICHIGAN

CITY           SKY/WX    TMP DP  RH WIND       PRES   REMARKS
KINROSS        PTCLDY    45  37  73 SW9G18    29.35F
6HR MIN TEMP:  34; 6HR MAX TEMP:  45;

MACKINAC ISLAN PTCLDY    48  34  57 SW16G29   29.35F
6HR MIN TEMP:  39; 6HR MAX TEMP:  48;

NEWBERRY       CLEAR     44  38  79 SW10G22   29.31S
6HR MIN TEMP:  35; 6HR MAX TEMP:  44;

S. S. MARIE    CLOUDY    40  34  79 E5        29.34F
6HR MIN TEMP:  36; 6HR MAX TEMP:  40;

MUNISING         N/A     42  33  70 SW9G22    29.27F
6HR MIN TEMP:  40; 6HR MAX TEMP:  45;

$$
MIZ004>006-011>014-085-210700-
CENTRAL UPPER MICHIGAN

CITY           SKY/WX    TMP DP  RH WIND       PRES   REMARKS
MANISTIQUE     MOCLDY    44  36  72 SW10G16   29.33S
6HR MIN TEMP:  43; 6HR MAX TEMP:  46;

ESCANABA       CLOUDY    42  32  67 SW9       29.34R
6HR MIN TEMP:  42; 6HR MAX TEMP:  45;

MENOMINEE      CLEAR     46  31  55 SW13      29.39R
6HR MIN TEMP:  40; 6HR MAX TEMP:  47;

SAWYER-GWINN   CLOUDY    33  30  87 S12       29.27F WCI  25
6HR MIN TEMP:  32; 6HR MAX TEMP:  35;

$$
MIZ001>003-009>011-084-210700-
WESTERN UPPER MICHIGAN

CITY           SKY/WX    TMP DP  RH WIND       PRES   REMARKS
IRON MOUNTAIN  CLOUDY    42  28  57 SW13G22   29.31S
6HR MIN TEMP:  35; 6HR MAX TEMP:  43;

HOUGHTON       CLOUDY    41  29  62 W21G29    29.19F
6HR MIN TEMP:  33; 6HR MAX TEMP:  41;

COPPER HARBOR    N/A     43  30  60 NW8G24    29.17S
6HR MIN TEMP:  38; 6HR MAX TEMP:  43;

IRONWOOD       CLOUDY    39  28  64 W17G24    29.30S WCI  30
6HR MIN TEMP:  39; 6HR MAX TEMP:  42;

$$

ABBREVIATIONS USED IN REMARKS
   TC - TEMPERATURE IN CELSIUS
  WCI - WIND CHILL INDEX
   HX - HEAT INDEX
  VSB - VISIBILITY





USA.gov is the U.S. government's official web portal to all federal, state and local government web resources and services.